User: anonymous   Login
Location: Bullenkuhlen
(53.7689°N, 9.7495°E)
Time: 15:07:51
(UTC+00:00)
Language:

Cosmos 676 Rocket - Orbit

View from above orbital plane
View from above orbital plane
View from above satellite
View from above satellite

Ground track
Ground track

The orbit data is extracted from the following two-line orbital elements,

1  7434U 74071B   21162.87445448  .00000040  00000-0  22382-4 0  9998
2  7434  74.0483  60.4342 0021105 328.9210  31.0694 14.36768298445762
Epoch (UTC): 11 June 2021 20:59:12
Eccentricity: 0.0021105
inclination: 74.0483°
perigee height: 754 km
apogee height: 784 km
right ascension of ascending node: 60.4342°
argument of perigee: 328.9210°
revolutions per day: 14.36768298
mean anomaly at epoch: 31.0694°
orbit number at epoch: 44576

The dashed part of the orbit path shows where the satellite is in the earth's shadow,  

DLR